Time,TemperatureF,DewpointF,PressureIn,WindDirection,WindDirectionDegrees,WindSpeedMPH,WindSpeedGustMPH,Humidity,HourlyPrecipIn,Conditions,Clouds,dailyrainin,SoftwareType,DateUTC
2013-02-15 00:00:00,45.7,38.6,30.21,North,0,0.0,0.0,76,0.00,,,0.00,WUHU21623XXSP,2013-02-15 08:00:00,
2013-02-15 00:05:00,45.7,38.6,30.21,NNW,337,0.0,0.0,76,0.00,,,0.00,WUHU21623XXSP,2013-02-15 08:05:00,
2013-02-15 00:10:00,45.3,38.2,30.21,NNW,337,0.0,0.0,76,0.00,,,0.00,WUHU21623XXSP,2013-02-15 08:10:00,
2013-02-15 00:15:00,45.1,38.0,30.21,NNW,337,0.0,0.0,76,0.00,,,0.00,WUHU21623XXSP,2013-02-15 08:15:00,
2013-02-15 00:20:00,45.0,38.2,30.21,NNW,337,0.0,0.0,77,0.00,,,0.00,WUHU21623XXSP,2013-02-15 08:20:00,
2013-02-15 00:25:00,45.0,38.2,30.21,NNW,337,0.0,0.0,77,0.00,,,0.00,WUHU21623XXSP,2013-02-15 08:25:00,
2013-02-15 00:30:00,44.8,38.2,30.21,NNW,337,0.0,0.0,77,0.00,,,0.00,WUHU21623XXSP,2013-02-15 08:30:00,
2013-02-15 00:35:00,44.6,38.0,30.22,NNW,337,0.0,0.0,77,0.00,,,0.00,WUHU21623XXSP,2013-02-15 08:35:00,
2013-02-15 00:40:00,44.4,37.6,30.22,NNW,337,0.0,0.0,77,0.00,,,0.00,WUHU21623XXSP,2013-02-15 08:40:00,
2013-02-15 00:45:00,44.4,37.6,30.22,NNW,337,0.0,0.0,77,0.00,,,0.00,WUHU21623XXSP,2013-02-15 08:45:00,
2013-02-15 00:50:00,44.2,37.8,30.22,NNW,337,0.0,0.0,78,0.00,,,0.00,WUHU21623XXSP,2013-02-15 08:50:00,
2013-02-15 00:55:00,44.1,37.6,30.22,NNW,337,0.0,0.0,78,0.00,,,0.00,WUHU21623XXSP,2013-02-15 08:55:00,
2013-02-15 01:00:00,43.9,37.4,30.22,NNW,337,0.0,0.0,78,0.00,,,0.00,WUHU21623XXSP,2013-02-15 09:00:00,
2013-02-15 01:05:00,43.9,37.4,30.22,NNW,337,0.0,0.0,78,0.00,,,0.00,WUHU21623XXSP,2013-02-15 09:05:00,
2013-02-15 01:10:00,43.5,37.1,30.22,NNW,337,0.0,0.0,78,0.00,,,0.00,WUHU21623XXSP,2013-02-15 09:10:00,
2013-02-15 01:15:00,43.5,37.1,30.22,North,0,0.0,0.0,78,0.00,,,0.00,WUHU21623XXSP,2013-02-15 09:15:00,
2013-02-15 01:20:00,43.3,36.9,30.22,North,0,0.0,0.0,78,0.00,,,0.00,WUHU21623XXSP,2013-02-15 09:20:00,
2013-02-15 01:25:00,43.3,37.2,30.22,NNW,337,0.0,0.0,79,0.00,,,0.00,WUHU21623XXSP,2013-02-15 09:25:00,
2013-02-15 01:30:00,43.2,37.1,30.23,NNW,337,0.0,0.0,79,0.00,,,0.00,WUHU21623XXSP,2013-02-15 09:30:00,
2013-02-15 01:35:00,43.0,36.9,30.22,NNW,337,0.0,0.0,79,0.00,,,0.00,WUHU21623XXSP,2013-02-15 09:35:00,
2013-02-15 01:40:00,43.0,36.9,30.22,NNW,337,0.0,0.0,79,0.00,,,0.00,WUHU21623XXSP,2013-02-15 09:40:00,
2013-02-15 01:45:00,43.0,37.2,30.22,NNW,337,0.0,0.0,80,0.00,,,0.00,WUHU21623XXSP,2013-02-15 09:45:00,
2013-02-15 01:50:00,42.6,36.9,30.22,NNW,337,0.0,0.0,80,0.00,,,0.00,WUHU21623XXSP,2013-02-15 09:50:00,
2013-02-15 01:55:00,42.6,36.9,30.22,NNW,337,0.0,0.0,80,0.00,,,0.00,WUHU21623XXSP,2013-02-15 09:55:00,
2013-02-15 02:00:00,42.4,36.7,30.22,NNW,337,0.0,0.0,80,0.00,,,0.00,WUHU21623XXSP,2013-02-15 10:00:00,
2013-02-15 02:05:00,42.4,36.7,30.22,NNW,337,0.0,0.0,80,0.00,,,0.00,WUHU21623XXSP,2013-02-15 10:05:00,
2013-02-15 02:10:00,42.4,36.7,30.22,NNW,337,0.0,0.0,80,0.00,,,0.00,WUHU21623XXSP,2013-02-15 10:10:00,
2013-02-15 02:15:00,42.1,36.3,30.22,NNW,337,0.0,0.0,80,0.00,,,0.00,WUHU21623XXSP,2013-02-15 10:15:00,
2013-02-15 02:20:00,42.1,36.6,30.22,NNW,337,0.0,0.0,81,0.00,,,0.00,WUHU21623XXSP,2013-02-15 10:20:00,
2013-02-15 02:25:00,41.9,36.4,30.22,NNW,337,0.0,0.0,81,0.00,,,0.00,WUHU21623XXSP,2013-02-15 10:25:00,
2013-02-15 02:30:00,41.9,36.4,30.22,North,0,0.0,0.0,81,0.00,,,0.00,WUHU21623XXSP,2013-02-15 10:30:00,
2013-02-15 02:35:00,41.7,36.3,30.23,North,0,0.0,0.0,81,0.00,,,0.00,WUHU21623XXSP,2013-02-15 10:35:00,
2013-02-15 02:40:00,41.5,36.1,30.23,NNW,337,0.0,0.0,81,0.00,,,0.00,WUHU21623XXSP,2013-02-15 10:40:00,
2013-02-15 02:45:00,41.5,36.1,30.22,NNW,337,0.0,0.0,81,0.00,,,0.00,WUHU21623XXSP,2013-02-15 10:45:00,
2013-02-15 02:50:00,41.5,36.1,30.23,NNW,337,0.0,0.0,81,0.00,,,0.00,WUHU21623XXSP,2013-02-15 10:50:00,
2013-02-15 02:55:00,41.4,36.2,30.22,NNW,337,0.0,0.0,82,0.00,,,0.00,WUHU21623XXSP,2013-02-15 10:55:00,
2013-02-15 03:00:00,41.2,36.0,30.22,NNW,337,0.0,0.0,82,0.00,,,0.00,WUHU21623XXSP,2013-02-15 11:00:00,
2013-02-15 03:05:00,41.2,36.0,30.22,NNW,337,0.0,0.0,82,0.00,,,0.00,WUHU21623XXSP,2013-02-15 11:05:00,
2013-02-15 03:10:00,41.0,35.9,30.22,NNW,337,0.0,0.0,82,0.00,,,0.00,WUHU21623XXSP,2013-02-15 11:10:00,
2013-02-15 03:15:00,40.8,35.7,30.22,NNW,337,0.0,0.0,82,0.00,,,0.00,WUHU21623XXSP,2013-02-15 11:15:00,
2013-02-15 03:20:00,40.8,35.7,30.22,NNW,337,0.0,0.0,82,0.00,,,0.00,WUHU21623XXSP,2013-02-15 11:20:00,
2013-02-15 03:25:00,40.8,35.7,30.22,NNW,337,0.0,0.0,82,0.00,,,0.00,WUHU21623XXSP,2013-02-15 11:25:00,
2013-02-15 03:30:00,40.6,35.5,30.22,NNW,337,0.0,0.0,82,0.00,,,0.00,WUHU21623XXSP,2013-02-15 11:30:00,
2013-02-15 03:35:00,40.6,35.5,30.22,NNW,337,0.0,0.0,82,0.00,,,0.00,WUHU21623XXSP,2013-02-15 11:35:00,
2013-02-15 03:40:00,40.5,35.7,30.21,NNW,337,0.0,0.0,83,0.00,,,0.00,WUHU21623XXSP,2013-02-15 11:40:00,
2013-02-15 03:45:00,40.3,35.5,30.22,NNW,337,0.0,0.0,83,0.00,,,0.00,WUHU21623XXSP,2013-02-15 11:45:00,
2013-02-15 03:50:00,40.1,35.3,30.21,NNW,337,0.0,0.0,83,0.00,,,0.00,WUHU21623XXSP,2013-02-15 11:50:00,
2013-02-15 03:55:00,40.1,35.3,30.22,NNW,337,0.0,0.0,83,0.00,,,0.00,WUHU21623XXSP,2013-02-15 11:55:00,
2013-02-15 04:00:00,39.9,35.1,30.22,NNW,337,0.0,0.0,83,0.00,,,0.00,WUHU21623XXSP,2013-02-15 12:00:00,
2013-02-15 04:05:00,39.9,35.1,30.22,NNW,337,0.0,0.0,83,0.00,,,0.00,WUHU21623XXSP,2013-02-15 12:05:00,
2013-02-15 04:10:00,39.7,35.0,30.22,NNW,337,0.0,0.0,83,0.00,,,0.00,WUHU21623XXSP,2013-02-15 12:10:00,
2013-02-15 04:15:00,39.7,35.0,30.23,NNW,337,0.0,0.0,83,0.00,,,0.00,WUHU21623XXSP,2013-02-15 12:15:00,
2013-02-15 04:20:00,39.6,34.8,30.22,NNW,337,0.0,0.0,83,0.00,,,0.00,WUHU21623XXSP,2013-02-15 12:20:00,
2013-02-15 04:25:00,39.6,34.8,30.22,NNW,337,0.0,0.0,83,0.00,,,0.00,WUHU21623XXSP,2013-02-15 12:25:00,
2013-02-15 04:30:00,39.4,34.6,30.22,NNW,337,0.0,0.0,83,0.00,,,0.00,WUHU21623XXSP,2013-02-15 12:30:00,
2013-02-15 04:35:00,39.4,34.6,30.22,NNW,337,0.0,0.0,83,0.00,,,0.00,WUHU21623XXSP,2013-02-15 12:35:00,
2013-02-15 04:40:00,39.4,34.9,30.22,North,0,0.0,0.0,84,0.00,,,0.00,WUHU21623XXSP,2013-02-15 12:40:00,
2013-02-15 04:45:00,39.0,34.6,30.23,North,0,0.0,0.0,84,0.00,,,0.00,WUHU21623XXSP,2013-02-15 12:45:00,
2013-02-15 04:51:00,39.0,34.6,30.22,NNW,337,0.0,0.0,84,0.00,,,0.00,WUHU21623XXSP,2013-02-15 12:51:00,
2013-02-15 04:56:00,39.0,34.6,30.23,NNW,337,0.0,0.0,84,0.00,,,0.00,WUHU21623XXSP,2013-02-15 12:56:00,
2013-02-15 05:01:00,39.0,34.6,30.23,NNW,337,0.0,0.0,84,0.00,,,0.00,WUHU21623XXSP,2013-02-15 13:01:00,
2013-02-15 05:06:00,38.8,34.4,30.23,NNW,337,0.0,0.0,84,0.00,,,0.00,WUHU21623XXSP,2013-02-15 13:06:00,
2013-02-15 05:11:00,38.8,34.4,30.23,NNW,337,0.0,0.0,84,0.00,,,0.00,WUHU21623XXSP,2013-02-15 13:11:00,
2013-02-15 05:16:00,38.8,34.4,30.23,NNW,337,0.0,0.0,84,0.00,,,0.00,WUHU21623XXSP,2013-02-15 13:16:00,
2013-02-15 05:21:00,38.8,34.4,30.23,North,0,0.0,0.0,84,0.00,,,0.00,WUHU21623XXSP,2013-02-15 13:21:00,
2013-02-15 05:26:00,38.5,34.1,30.23,North,0,0.0,0.0,84,0.00,,,0.00,WUHU21623XXSP,2013-02-15 13:26:00,
2013-02-15 05:31:00,38.5,34.1,30.23,NNW,337,0.0,0.0,84,0.00,,,0.00,WUHU21623XXSP,2013-02-15 13:31:00,
2013-02-15 05:36:00,38.5,34.1,30.23,NNW,337,0.0,0.0,85,0.00,,,0.00,WUHU21623XXSP,2013-02-15 13:36:00,
2013-02-15 05:41:00,38.5,34.3,30.24,NNW,337,0.0,0.0,85,0.00,,,0.00,WUHU21623XXSP,2013-02-15 13:41:00,
2013-02-15 05:46:00,38.5,34.3,30.23,NNW,337,0.0,0.0,85,0.00,,,0.00,WUHU21623XXSP,2013-02-15 13:46:00,
2013-02-15 05:51:00,38.3,34.2,30.23,NNW,337,0.0,0.0,85,0.00,,,0.00,WUHU21623XXSP,2013-02-15 13:51:00,
2013-02-15 05:56:00,38.3,34.2,30.24,NNW,337,0.0,0.0,85,0.00,,,0.00,WUHU21623XXSP,2013-02-15 13:56:00,
2013-02-15 06:01:00,38.1,33.7,30.23,NNW,337,0.0,0.0,84,0.00,,,0.00,WUHU21623XXSP,2013-02-15 14:01:00,
2013-02-15 06:06:00,38.1,33.7,30.23,NNW,337,0.0,0.0,85,0.00,,,0.00,WUHU21623XXSP,2013-02-15 14:06:00,
2013-02-15 06:11:00,38.1,34.0,30.23,NNW,337,0.0,0.0,85,0.00,,,0.00,WUHU21623XXSP,2013-02-15 14:11:00,
2013-02-15 06:16:00,38.1,34.0,30.23,NNW,337,0.0,0.0,85,0.00,,,0.00,WUHU21623XXSP,2013-02-15 14:16:00,
2013-02-15 06:21:00,37.9,33.8,30.24,NNW,337,0.0,0.0,85,0.00,,,0.00,WUHU21623XXSP,2013-02-15 14:21:00,
2013-02-15 06:26:00,37.9,33.8,30.24,North,0,0.0,0.0,85,0.00,,,0.00,WUHU21623XXSP,2013-02-15 14:26:00,
2013-02-15 06:31:00,37.9,33.8,30.24,NNW,337,0.0,0.0,85,0.00,,,0.00,WUHU21623XXSP,2013-02-15 14:31:00,
2013-02-15 06:36:00,37.9,33.8,30.24,NNW,337,0.0,0.0,85,0.00,,,0.00,WUHU21623XXSP,2013-02-15 14:36:00,
2013-02-15 06:41:00,37.9,33.8,30.24,NNW,337,0.0,0.0,85,0.00,,,0.00,WUHU21623XXSP,2013-02-15 14:41:00,
2013-02-15 06:46:00,37.9,34.1,30.24,NNW,337,0.0,0.0,86,0.00,,,0.00,WUHU21623XXSP,2013-02-15 14:46:00,
2013-02-15 06:51:00,37.9,34.1,30.24,NNW,337,0.0,0.0,86,0.00,,,0.00,WUHU21623XXSP,2013-02-15 14:51:00,
2013-02-15 06:56:00,37.9,34.1,30.25,NNW,337,0.0,0.0,86,0.00,,,0.00,WUHU21623XXSP,2013-02-15 14:56:00,
2013-02-15 07:01:00,37.9,34.1,30.25,NNW,337,0.0,0.0,86,0.00,,,0.00,WUHU21623XXSP,2013-02-15 15:01:00,
2013-02-15 07:06:00,38.1,34.3,30.24,NNW,337,0.0,0.0,86,0.00,,,0.00,WUHU21623XXSP,2013-02-15 15:06:00,
2013-02-15 07:11:00,38.1,34.3,30.24,NNW,337,0.0,0.0,86,0.00,,,0.00,WUHU21623XXSP,2013-02-15 15:11:00,
2013-02-15 07:16:00,38.1,34.3,30.25,NNW,337,0.0,0.0,86,0.00,,,0.00,WUHU21623XXSP,2013-02-15 15:16:00,
2013-02-15 07:21:00,38.1,34.3,30.25,NNW,337,0.0,0.0,86,0.00,,,0.00,WUHU21623XXSP,2013-02-15 15:21:00,
2013-02-15 07:26:00,38.3,34.4,30.26,NNW,337,0.0,0.0,86,0.00,,,0.00,WUHU21623XXSP,2013-02-15 15:26:00,
2013-02-15 07:31:00,38.3,34.4,30.26,NNW,337,0.0,0.0,86,0.00,,,0.00,WUHU21623XXSP,2013-02-15 15:31:00,
2013-02-15 07:36:00,38.5,34.4,30.26,NNW,337,0.0,0.0,87,0.00,,,0.00,WUHU21623XXSP,2013-02-15 15:36:00,
2013-02-15 07:41:00,38.5,34.9,30.26,NNW,337,0.0,0.0,87,0.00,,,0.00,WUHU21623XXSP,2013-02-15 15:41:00,
2013-02-15 07:46:00,38.8,35.3,30.26,NNW,337,0.0,0.0,87,0.00,,,0.00,WUHU21623XXSP,2013-02-15 15:46:00,
2013-02-15 07:51:00,39.0,35.5,30.26,North,0,0.0,0.0,87,0.00,,,0.00,WUHU21623XXSP,2013-02-15 15:51:00,
2013-02-15 07:56:00,39.4,35.8,30.26,North,0,0.0,0.0,87,0.00,,,0.00,WUHU21623XXSP,2013-02-15 15:56:00,
2013-02-15 08:01:00,39.9,36.0,30.26,NNW,337,0.0,0.0,87,0.00,,,0.00,WUHU21623XXSP,2013-02-15 16:01:00,
2013-02-15 08:06:00,40.8,37.5,30.27,NNW,337,0.0,0.0,88,0.00,,,0.00,WUHU21623XXSP,2013-02-15 16:06:00,
2013-02-15 08:11:00,41.4,38.0,30.27,NNW,337,0.0,0.0,88,0.00,,,0.00,WUHU21623XXSP,2013-02-15 16:11:00,
2013-02-15 08:16:00,41.9,38.1,30.27,NNW,337,0.0,0.0,87,0.00,,,0.00,WUHU21623XXSP,2013-02-15 16:16:00,
2013-02-15 08:21:00,42.3,38.9,30.27,NNW,337,0.0,0.0,88,0.00,,,0.00,WUHU21623XXSP,2013-02-15 16:21:00,
2013-02-15 08:26:00,43.3,39.4,30.27,NNW,337,0.0,0.0,87,0.00,,,0.00,WUHU21623XXSP,2013-02-15 16:26:00,
2013-02-15 08:31:00,43.5,39.7,30.27,NNW,337,0.0,0.0,87,0.00,,,0.00,WUHU21623XXSP,2013-02-15 16:31:00,
2013-02-15 08:36:00,44.4,40.4,30.28,NNW,337,0.0,0.0,87,0.00,,,0.00,WUHU21623XXSP,2013-02-15 16:36:00,
2013-02-15 08:41:00,45.0,41.3,30.28,NNW,337,0.0,0.0,87,0.00,,,0.00,WUHU21623XXSP,2013-02-15 16:41:00,
2013-02-15 08:46:00,45.7,42.1,30.28,NNW,337,0.0,0.0,87,0.00,,,0.00,WUHU21623XXSP,2013-02-15 16:46:00,
2013-02-15 08:51:00,46.6,42.1,30.27,NNW,337,0.0,0.0,86,0.00,,,0.00,WUHU21623XXSP,2013-02-15 16:51:00,
2013-02-15 08:58:00,47.5,43.2,30.27,NNW,337,0.0,0.0,86,0.00,,,0.00,WUHU21623XXSP,2013-02-15 16:58:00,
2013-02-15 09:03:00,48.6,43.9,30.28,NNW,337,0.0,0.0,84,0.00,,,0.00,WUHU21623XXSP,2013-02-15 17:03:00,
2013-02-15 09:08:00,48.9,44.2,30.27,NNW,337,0.0,0.0,83,0.00,,,0.00,WUHU21623XXSP,2013-02-15 17:08:00,
2013-02-15 09:13:00,49.8,44.5,30.27,NNW,337,0.0,0.0,82,0.00,,,0.00,WUHU21623XXSP,2013-02-15 17:13:00,
2013-02-15 09:18:00,50.7,45.1,30.27,NNW,337,0.0,0.0,81,0.00,,,0.00,WUHU21623XXSP,2013-02-15 17:18:00,
2013-02-15 09:23:00,51.1,45.4,30.27,NNW,337,0.0,0.0,81,0.00,,,0.00,WUHU21623XXSP,2013-02-15 17:23:00,
2013-02-15 09:28:00,52.0,45.3,30.27,NNW,337,0.0,0.0,78,0.00,,,0.00,WUHU21623XXSP,2013-02-15 17:28:00,
2013-02-15 09:33:00,52.9,45.5,30.27,NNW,337,0.0,0.0,76,0.00,,,0.00,WUHU21623XXSP,2013-02-15 17:33:00,
2013-02-15 09:38:00,53.4,45.7,30.27,NNW,337,0.0,0.0,75,0.00,,,0.00,WUHU21623XXSP,2013-02-15 17:38:00,
2013-02-15 09:43:00,54.0,45.5,30.27,NNW,337,0.0,0.0,73,0.00,,,0.00,WUHU21623XXSP,2013-02-15 17:43:00,
2013-02-15 09:48:00,54.9,46.0,30.27,NNW,337,0.0,0.0,72,0.00,,,0.00,WUHU21623XXSP,2013-02-15 17:48:00,
2013-02-15 09:53:00,55.2,46.0,30.27,NNW,337,0.0,0.0,71,0.00,,,0.00,WUHU21623XXSP,2013-02-15 17:53:00,
2013-02-15 09:58:00,56.1,46.1,30.27,NNW,337,0.0,0.0,69,0.00,,,0.00,WUHU21623XXSP,2013-02-15 17:58:00,
2013-02-15 10:03:00,56.8,46.0,30.27,NNW,337,0.0,0.0,67,0.00,,,0.00,WUHU21623XXSP,2013-02-15 18:03:00,
2013-02-15 10:08:00,57.4,45.7,30.27,NNW,337,0.0,0.0,65,0.00,,,0.00,WUHU21623XXSP,2013-02-15 18:08:00,
2013-02-15 10:13:00,57.6,45.8,30.27,North,0,0.0,0.0,65,0.00,,,0.00,WUHU21623XXSP,2013-02-15 18:13:00,
2013-02-15 10:18:00,58.6,46.0,30.27,NNW,337,0.0,0.0,63,0.00,,,0.00,WUHU21623XXSP,2013-02-15 18:18:00,
2013-02-15 10:23:00,58.8,45.8,30.27,North,0,0.0,0.0,62,0.00,,,0.00,WUHU21623XXSP,2013-02-15 18:23:00,
2013-02-15 10:28:00,59.2,45.7,30.27,North,0,0.0,0.0,61,0.00,,,0.00,WUHU21623XXSP,2013-02-15 18:28:00,
2013-02-15 10:33:00,60.1,45.4,30.27,North,0,0.0,0.0,59,0.00,,,0.00,WUHU21623XXSP,2013-02-15 18:33:00,
2013-02-15 10:38:00,60.4,45.6,30.27,NNW,337,0.0,0.0,58,0.00,,,0.00,WUHU21623XXSP,2013-02-15 18:38:00,
2013-02-15 10:43:00,60.6,45.3,30.26,NNW,337,0.0,0.0,57,0.00,,,0.00,WUHU21623XXSP,2013-02-15 18:43:00,
2013-02-15 10:48:00,61.3,45.0,30.26,NNW,337,0.0,0.0,55,0.00,,,0.00,WUHU21623XXSP,2013-02-15 18:48:00,
2013-02-15 10:53:00,61.5,45.2,30.26,NNW,337,0.0,0.0,55,0.00,,,0.00,WUHU21623XXSP,2013-02-15 18:53:00,
2013-02-15 10:58:00,62.2,44.3,30.27,North,0,0.0,0.0,52,0.00,,,0.00,WUHU21623XXSP,2013-02-15 18:58:00,
2013-02-15 11:03:00,62.4,44.5,30.26,North,0,0.0,0.0,52,0.00,,,0.00,WUHU21623XXSP,2013-02-15 19:03:00,
2013-02-15 11:08:00,63.0,44.0,30.27,North,0,0.0,0.0,50,0.00,,,0.00,WUHU21623XXSP,2013-02-15 19:08:00,
2013-02-15 11:13:00,63.3,44.3,30.26,North,0,0.0,0.0,50,0.00,,,0.00,WUHU21623XXSP,2013-02-15 19:13:00,
2013-02-15 11:18:00,63.9,44.7,30.26,North,0,0.0,0.0,50,0.00,,,0.00,WUHU21623XXSP,2013-02-15 19:18:00,
2013-02-15 11:23:00,64.2,44.6,30.26,North,0,0.0,0.0,49,0.00,,,0.00,WUHU21623XXSP,2013-02-15 19:23:00,
2013-02-15 11:28:00,64.9,45.3,30.26,NNW,337,0.0,0.0,49,0.00,,,0.00,WUHU21623XXSP,2013-02-15 19:28:00,
2013-02-15 11:33:00,65.1,45.4,30.26,NNW,337,0.0,0.0,49,0.00,,,0.00,WUHU21623XXSP,2013-02-15 19:33:00,
2013-02-15 11:38:00,65.7,45.4,30.26,NW,315,0.0,0.0,48,0.00,,,0.00,WUHU21623XXSP,2013-02-15 19:38:00,
2013-02-15 11:43:00,66.0,45.2,30.26,North,0,0.0,0.0,47,0.00,,,0.00,WUHU21623XXSP,2013-02-15 19:43:00,
2013-02-15 11:48:00,66.6,45.1,30.26,NW,315,0.0,0.0,46,0.00,,,0.00,WUHU21623XXSP,2013-02-15 19:48:00,
2013-02-15 11:53:00,66.7,45.2,30.26,NW,315,0.0,0.0,46,0.00,,,0.00,WUHU21623XXSP,2013-02-15 19:53:00,
2013-02-15 11:58:00,66.9,44.8,30.25,NNW,337,0.0,3.6,45,0.00,,,0.00,WUHU21623XXSP,2013-02-15 19:58:00,
2013-02-15 12:03:00,67.1,44.4,30.26,NW,315,0.0,3.6,44,0.00,,,0.00,WUHU21623XXSP,2013-02-15 20:03:00,
2013-02-15 12:08:00,67.3,44.5,30.25,NNW,337,0.0,0.0,44,0.00,,,0.00,WUHU21623XXSP,2013-02-15 20:08:00,
2013-02-15 12:13:00,67.8,44.4,30.25,North,0,0.0,0.0,43,0.00,,,0.00,WUHU21623XXSP,2013-02-15 20:13:00,
2013-02-15 12:18:00,67.8,44.4,30.24,North,0,0.0,0.0,43,0.00,,,0.00,WUHU21623XXSP,2013-02-15 20:18:00,
2013-02-15 12:23:00,68.0,44.6,30.24,NNW,337,0.0,0.0,43,0.00,,,0.00,WUHU21623XXSP,2013-02-15 20:23:00,
2013-02-15 12:28:00,68.2,44.7,30.24,North,0,0.0,0.0,43,0.00,,,0.00,WUHU21623XXSP,2013-02-15 20:28:00,
2013-02-15 12:33:00,68.4,44.9,30.23,North,0,0.0,0.0,43,0.00,,,0.00,WUHU21623XXSP,2013-02-15 20:33:00,
2013-02-15 12:38:00,68.7,44.6,30.23,North,0,0.0,0.0,42,0.00,,,0.00,WUHU21623XXSP,2013-02-15 20:38:00,
2013-02-15 12:43:00,68.7,44.6,30.23,North,0,0.0,2.0,42,0.00,,,0.00,WUHU21623XXSP,2013-02-15 20:43:00,
2013-02-15 12:48:00,68.9,44.8,30.23,North,0,0.0,2.0,42,0.00,,,0.00,WUHU21623XXSP,2013-02-15 20:48:00,
2013-02-15 12:53:00,68.9,44.8,30.23,North,0,0.0,0.0,42,0.00,,,0.00,WUHU21623XXSP,2013-02-15 20:53:00,
2013-02-15 12:58:00,69.1,44.4,30.22,North,0,0.0,0.0,41,0.00,,,0.00,WUHU21623XXSP,2013-02-15 20:58:00,
2013-02-15 13:03:00,69.6,44.9,30.22,North,0,0.0,0.0,41,0.00,,,0.00,WUHU21623XXSP,2013-02-15 21:03:00,
2013-02-15 13:08:00,69.6,44.9,30.22,North,0,0.0,0.0,41,0.00,,,0.00,WUHU21623XXSP,2013-02-15 21:08:00,
2013-02-15 13:13:00,69.8,45.0,30.22,NW,315,0.0,0.0,41,0.00,,,0.00,WUHU21623XXSP,2013-02-15 21:13:00,
2013-02-15 13:18:00,70.2,45.3,30.22,NNW,337,0.0,0.0,41,0.00,,,0.00,WUHU21623XXSP,2013-02-15 21:18:00,
2013-02-15 13:23:00,70.3,45.5,30.22,NNW,337,0.0,0.0,41,0.00,,,0.00,WUHU21623XXSP,2013-02-15 21:23:00,
2013-02-15 13:28:00,70.3,44.9,30.22,North,0,0.0,0.0,40,0.00,,,0.00,WUHU21623XXSP,2013-02-15 21:28:00,
2013-02-15 13:33:00,70.5,45.1,30.22,NNW,337,0.0,0.0,40,0.00,,,0.00,WUHU21623XXSP,2013-02-15 21:33:00,
2013-02-15 13:38:00,70.9,45.4,30.21,NNW,337,0.0,0.0,40,0.00,,,0.00,WUHU21623XXSP,2013-02-15 21:38:00,
2013-02-15 13:43:00,70.9,44.7,30.21,North,0,0.0,0.0,39,0.00,,,0.00,WUHU21623XXSP,2013-02-15 21:43:00,
2013-02-15 13:48:00,71.2,45.0,30.21,North,0,0.0,0.0,39,0.00,,,0.00,WUHU21623XXSP,2013-02-15 21:48:00,
2013-02-15 13:53:00,71.2,45.0,30.21,North,0,0.0,0.0,39,0.00,,,0.00,WUHU21623XXSP,2013-02-15 21:53:00,
2013-02-15 13:58:00,71.4,45.1,30.21,North,0,0.0,0.0,39,0.00,,,0.00,WUHU21623XXSP,2013-02-15 21:58:00,
2013-02-15 14:03:00,71.4,42.9,30.21,North,0,3.4,3.4,36,0.00,,,0.00,WUHU21623XXSP,2013-02-15 22:03:00,
2013-02-15 14:08:00,71.4,42.9,30.21,North,0,0.0,3.4,37,0.00,,,0.00,WUHU21623XXSP,2013-02-15 22:08:00,
2013-02-15 14:15:00,71.4,42.9,30.21,North,0,0.0,0.0,36,0.00,,,0.00,WUHU21623XXSP,2013-02-15 22:15:00,
2013-02-15 14:20:00,71.8,43.2,30.20,NW,315,0.0,0.0,36,0.00,,,0.00,WUHU21623XXSP,2013-02-15 22:20:00,
2013-02-15 14:25:00,71.8,43.2,30.20,NW,315,0.0,0.0,36,0.00,,,0.00,WUHU21623XXSP,2013-02-15 22:25:00,
2013-02-15 14:30:00,72.1,45.0,30.20,WNW,292,0.0,0.0,38,0.00,,,0.00,WUHU21623XXSP,2013-02-15 22:30:00,
2013-02-15 14:35:00,72.3,43.7,30.20,WNW,292,0.0,0.0,36,0.00,,,0.00,WUHU21623XXSP,2013-02-15 22:35:00,
2013-02-15 14:40:00,72.3,43.7,30.20,NW,315,0.0,0.0,36,0.00,,,0.00,WUHU21623XXSP,2013-02-15 22:40:00,
2013-02-15 14:45:00,72.7,43.3,30.20,North,0,0.0,0.0,35,0.00,,,0.00,WUHU21623XXSP,2013-02-15 22:45:00,
2013-02-15 14:50:00,72.7,43.3,30.20,North,0,2.7,2.7,35,0.00,,,0.00,WUHU21623XXSP,2013-02-15 22:50:00,
2013-02-15 14:55:00,72.7,43.3,30.20,NNE,22,0.0,2.7,35,0.00,,,0.00,WUHU21623XXSP,2013-02-15 22:55:00,
2013-02-15 15:00:00,72.7,43.3,30.20,North,0,0.0,0.0,35,0.00,,,0.00,WUHU21623XXSP,2013-02-15 23:00:00,
2013-02-15 15:05:00,72.7,43.3,30.20,North,0,0.0,0.0,35,0.00,,,0.00,WUHU21623XXSP,2013-02-15 23:05:00,
2013-02-15 15:10:00,72.7,44.0,30.20,NNW,337,0.2,0.2,36,0.00,,,0.00,WUHU21623XXSP,2013-02-15 23:10:00,
2013-02-15 15:15:00,72.7,44.8,30.20,NNW,337,0.0,0.2,37,0.00,,,0.00,WUHU21623XXSP,2013-02-15 23:15:00,
2013-02-15 15:20:00,72.7,44.0,30.20,North,0,3.1,3.1,36,0.00,,,0.00,WUHU21623XXSP,2013-02-15 23:20:00,
2013-02-15 15:25:00,72.7,44.0,30.19,NNW,337,0.0,3.1,36,0.00,,,0.00,WUHU21623XXSP,2013-02-15 23:25:00,
2013-02-15 15:30:00,72.7,44.8,30.19,NNW,337,0.0,2.9,37,0.00,,,0.00,WUHU21623XXSP,2013-02-15 23:30:00,
2013-02-15 15:35:00,72.7,44.8,30.19,NW,315,2.5,2.9,37,0.00,,,0.00,WUHU21623XXSP,2013-02-15 23:35:00,
2013-02-15 15:40:00,72.7,44.8,30.19,West,270,0.0,2.5,37,0.00,,,0.00,WUHU21623XXSP,2013-02-15 23:40:00,
2013-02-15 15:45:00,72.7,43.3,30.19,NNW,337,0.0,2.9,35,0.00,,,0.00,WUHU21623XXSP,2013-02-15 23:45:00,
2013-02-15 15:50:00,72.5,43.9,30.19,NNW,337,0.0,2.9,36,0.00,,,0.00,WUHU21623XXSP,2013-02-15 23:50:00,
2013-02-15 15:55:00,72.5,43.9,30.19,NNW,337,0.0,0.0,36,0.00,,,0.00,WUHU21623XXSP,2013-02-15 23:55:00,
2013-02-15 16:00:00,72.5,43.1,30.19,NNW,337,0.0,0.0,35,0.00,,,0.00,WUHU21623XXSP,2013-02-16 00:00:00,
2013-02-15 16:05:00,72.3,43.0,30.19,NNW,337,0.0,0.0,35,0.00,,,0.00,WUHU21623XXSP,2013-02-16 00:05:00,
2013-02-15 16:10:00,72.3,43.7,30.19,NNW,337,0.0,0.0,36,0.00,,,0.00,WUHU21623XXSP,2013-02-16 00:10:00,
2013-02-15 16:15:00,72.1,43.5,30.19,NNW,337,0.0,0.0,36,0.00,,,0.00,WUHU21623XXSP,2013-02-16 00:15:00,
2013-02-15 16:20:00,72.0,43.4,30.19,NNW,337,0.0,0.0,36,0.00,,,0.00,WUHU21623XXSP,2013-02-16 00:20:00,
2013-02-15 16:25:00,71.8,43.2,30.19,NNW,337,0.0,0.0,36,0.00,,,0.00,WUHU21623XXSP,2013-02-16 00:25:00,
2013-02-15 16:30:00,71.6,44.6,30.19,NNW,337,0.0,0.0,38,0.00,,,0.00,WUHU21623XXSP,2013-02-16 00:30:00,
2013-02-15 16:35:00,71.4,44.4,30.19,NNW,337,0.0,0.0,38,0.00,,,0.00,WUHU21623XXSP,2013-02-16 00:35:00,
2013-02-15 16:40:00,71.4,43.7,30.18,NNW,337,0.0,0.0,37,0.00,,,0.00,WUHU21623XXSP,2013-02-16 00:40:00,
2013-02-15 16:45:00,71.2,43.5,30.19,NW,315,0.0,0.0,37,0.00,,,0.00,WUHU21623XXSP,2013-02-16 00:45:00,
2013-02-15 16:50:00,71.2,43.5,30.19,NW,315,0.0,0.0,37,0.00,,,0.00,WUHU21623XXSP,2013-02-16 00:50:00,
2013-02-15 16:55:00,71.2,43.5,30.18,WNW,292,0.0,0.0,37,0.00,,,0.00,WUHU21623XXSP,2013-02-16 00:55:00,
2013-02-15 17:00:00,70.9,43.2,30.18,WNW,292,0.0,0.0,37,0.00,,,0.00,WUHU21623XXSP,2013-02-16 01:00:00,
2013-02-15 17:05:00,70.5,42.9,30.18,WNW,292,0.0,0.0,37,0.00,,,0.00,WUHU21623XXSP,2013-02-16 01:05:00,
2013-02-15 17:10:00,70.5,42.9,30.18,WNW,292,0.0,0.0,37,0.00,,,0.00,WUHU21623XXSP,2013-02-16 01:10:00,
2013-02-15 17:15:00,70.3,42.7,30.18,NW,315,0.0,0.0,37,0.00,,,0.00,WUHU21623XXSP,2013-02-16 01:15:00,
2013-02-15 17:20:00,70.2,42.5,30.18,NW,315,0.0,0.0,37,0.00,,,0.00,WUHU21623XXSP,2013-02-16 01:20:00,
2013-02-15 17:25:00,69.6,43.5,30.18,NW,315,0.0,0.0,39,0.00,,,0.00,WUHU21623XXSP,2013-02-16 01:25:00,
2013-02-15 17:30:00,69.1,43.0,30.18,NW,315,0.0,0.0,39,0.00,,,0.00,WUHU21623XXSP,2013-02-16 01:30:00,
2013-02-15 17:35:00,68.5,43.3,30.18,NW,315,0.0,0.0,40,0.00,,,0.00,WUHU21623XXSP,2013-02-16 01:35:00,
2013-02-15 17:40:00,67.8,43.6,30.18,NW,315,0.0,0.0,41,0.00,,,0.00,WUHU21623XXSP,2013-02-16 01:40:00,
2013-02-15 17:45:00,67.3,43.3,30.18,NW,315,0.0,0.0,42,0.00,,,0.00,WUHU21623XXSP,2013-02-16 01:45:00,
2013-02-15 17:50:00,66.7,43.4,30.18,NW,315,0.0,0.0,43,0.00,,,0.00,WUHU21623XXSP,2013-02-16 01:50:00,
2013-02-15 17:55:00,66.0,43.4,30.19,NW,315,0.0,0.0,44,0.00,,,0.00,WUHU21623XXSP,2013-02-16 01:55:00,
2013-02-15 18:00:00,65.7,43.6,30.18,NW,315,0.0,0.0,45,0.00,,,0.00,WUHU21623XXSP,2013-02-16 02:00:00,
2013-02-15 18:05:00,65.1,43.7,30.19,NW,315,0.0,0.0,46,0.00,,,0.00,WUHU21623XXSP,2013-02-16 02:05:00,
2013-02-15 18:10:00,64.2,43.4,30.19,NW,315,0.0,0.0,47,0.00,,,0.00,WUHU21623XXSP,2013-02-16 02:10:00,
2013-02-15 18:15:00,63.7,42.9,30.19,NW,315,0.0,0.0,47,0.00,,,0.00,WUHU21623XXSP,2013-02-16 02:15:00,
2013-02-15 18:20:00,63.1,43.0,30.20,NW,315,0.0,0.0,48,0.00,,,0.00,WUHU21623XXSP,2013-02-16 02:20:00,
2013-02-15 18:25:00,62.4,42.4,30.20,NW,315,0.0,0.0,48,0.00,,,0.00,WUHU21623XXSP,2013-02-16 02:25:00,
2013-02-15 18:30:00,62.1,42.6,30.20,NW,315,0.0,0.0,49,0.00,,,0.00,WUHU21623XXSP,2013-02-16 02:30:00,
2013-02-15 18:35:00,61.5,42.7,30.20,NW,315,0.0,0.0,50,0.00,,,0.00,WUHU21623XXSP,2013-02-16 02:35:00,
2013-02-15 18:40:00,61.0,42.7,30.20,NW,315,0.0,0.0,51,0.00,,,0.00,WUHU21623XXSP,2013-02-16 02:40:00,
2013-02-15 18:45:00,60.6,42.9,30.20,NW,315,0.0,0.0,52,0.00,,,0.00,WUHU21623XXSP,2013-02-16 02:45:00,
2013-02-15 18:50:00,60.3,42.5,30.20,NW,315,0.0,0.0,52,0.00,,,0.00,WUHU21623XXSP,2013-02-16 02:50:00,
2013-02-15 18:55:00,59.5,42.4,30.20,NW,315,0.0,0.0,53,0.00,,,0.00,WUHU21623XXSP,2013-02-16 02:55:00,
2013-02-15 19:00:00,59.2,42.5,30.21,NW,315,0.0,0.0,54,0.00,,,0.00,WUHU21623XXSP,2013-02-16 03:00:00,
2013-02-15 19:05:00,58.8,42.6,30.21,NW,315,0.0,0.0,55,0.00,,,0.00,WUHU21623XXSP,2013-02-16 03:05:00,
2013-02-15 19:10:00,58.5,42.8,30.21,NW,315,0.0,0.0,56,0.00,,,0.00,WUHU21623XXSP,2013-02-16 03:10:00,
2013-02-15 19:15:00,57.9,42.3,30.21,NW,315,0.0,0.0,56,0.00,,,0.00,WUHU21623XXSP,2013-02-16 03:15:00,
2013-02-15 19:20:00,57.7,42.1,30.21,NW,315,0.0,0.0,56,0.00,,,0.00,WUHU21623XXSP,2013-02-16 03:20:00,
2013-02-15 19:25:00,57.2,42.1,30.21,NW,315,0.0,0.0,57,0.00,,,0.00,WUHU21623XXSP,2013-02-16 03:25:00,
2013-02-15 19:30:00,56.8,42.2,30.21,NW,315,0.0,0.0,58,0.00,,,0.00,WUHU21623XXSP,2013-02-16 03:30:00,
2013-02-15 19:35:00,56.5,42.3,30.21,NW,315,0.0,0.0,59,0.00,,,0.00,WUHU21623XXSP,2013-02-16 03:35:00,
2013-02-15 19:40:00,56.1,42.0,30.21,NW,315,0.0,0.0,59,0.00,,,0.00,WUHU21623XXSP,2013-02-16 03:40:00,
2013-02-15 19:45:00,55.9,42.3,30.21,NW,315,0.0,0.0,60,0.00,,,0.00,WUHU21623XXSP,2013-02-16 03:45:00,
2013-02-15 19:50:00,55.8,42.5,30.21,NW,315,0.0,0.0,61,0.00,,,0.00,WUHU21623XXSP,2013-02-16 03:50:00,
2013-02-15 19:55:00,55.2,42.0,30.21,NW,315,0.0,0.0,61,0.00,,,0.00,WUHU21623XXSP,2013-02-16 03:55:00,
2013-02-15 20:00:00,55.2,42.0,30.21,NW,315,0.0,0.0,61,0.00,,,0.00,WUHU21623XXSP,2013-02-16 04:00:00,
2013-02-15 20:05:00,55.0,42.2,30.22,NW,315,0.0,0.0,62,0.00,,,0.00,WUHU21623XXSP,2013-02-16 04:05:00,
2013-02-15 20:10:00,54.5,41.7,30.21,NW,315,0.0,0.0,62,0.00,,,0.00,WUHU21623XXSP,2013-02-16 04:10:00,
2013-02-15 20:15:00,54.5,42.1,30.21,NW,315,0.0,0.0,63,0.00,,,0.00,WUHU21623XXSP,2013-02-16 04:15:00,
2013-02-15 20:21:00,54.1,41.8,30.21,NW,315,0.0,0.0,63,0.00,,,0.00,WUHU21623XXSP,2013-02-16 04:21:00,
2013-02-15 20:26:00,54.0,42.0,30.22,NW,315,0.0,0.0,64,0.00,,,0.00,WUHU21623XXSP,2013-02-16 04:26:00,
2013-02-15 20:31:00,53.8,41.8,30.22,NW,315,0.0,0.0,64,0.00,,,0.00,WUHU21623XXSP,2013-02-16 04:31:00,
2013-02-15 20:36:00,53.4,41.5,30.22,NW,315,0.0,0.0,64,0.00,,,0.00,WUHU21623XXSP,2013-02-16 04:36:00,
2013-02-15 20:41:00,53.4,41.9,30.22,NW,315,0.0,0.0,65,0.00,,,0.00,WUHU21623XXSP,2013-02-16 04:41:00,
2013-02-15 20:46:00,53.2,41.7,30.22,NW,315,0.0,0.0,65,0.00,,,0.00,WUHU21623XXSP,2013-02-16 04:46:00,
2013-02-15 20:51:00,52.9,41.4,30.22,NW,315,0.0,0.0,65,0.00,,,0.00,WUHU21623XXSP,2013-02-16 04:51:00,
2013-02-15 20:56:00,52.7,41.6,30.23,NW,315,0.0,0.0,66,0.00,,,0.00,WUHU21623XXSP,2013-02-16 04:56:00,
2013-02-15 21:00:00,52.5,41.5,30.22,NW,315,0.0,0.0,66,0.00,,,0.00,WUHU21623XXSP,2013-02-16 05:00:00,
2013-02-15 21:05:00,52.3,41.3,30.22,NW,315,0.0,0.0,66,0.00,,,0.00,WUHU21623XXSP,2013-02-16 05:05:00,
2013-02-15 21:10:00,52.0,41.4,30.22,NW,315,0.0,0.0,67,0.00,,,0.00,WUHU21623XXSP,2013-02-16 05:10:00,
2013-02-15 21:15:00,51.8,41.2,30.22,NW,315,0.0,0.0,67,0.00,,,0.00,WUHU21623XXSP,2013-02-16 05:15:00,
2013-02-15 21:20:00,51.6,41.0,30.23,NW,315,0.0,0.0,67,0.00,,,0.00,WUHU21623XXSP,2013-02-16 05:20:00,
2013-02-15 21:23:00,51.4,41.3,30.23,NW,315,0.0,0.0,68,0.00,,,0.00,WUHU21623XXSP,2013-02-16 05:23:00,
2013-02-15 21:28:00,51.1,40.9,30.23,NW,315,0.0,0.0,68,0.00,,,0.00,WUHU21623XXSP,2013-02-16 05:28:00,
2013-02-15 21:33:00,50.9,40.9,30.23,NW,315,0.0,0.0,69,0.00,,,0.00,WUHU21623XXSP,2013-02-16 05:33:00,
2013-02-15 21:38:00,50.7,40.9,30.23,NW,315,0.0,0.0,69,0.00,,,0.00,WUHU21623XXSP,2013-02-16 05:38:00,
2013-02-15 21:43:00,50.4,40.6,30.23,NW,315,0.0,0.0,69,0.00,,,0.00,WUHU21623XXSP,2013-02-16 05:43:00,
2013-02-15 21:48:00,50.2,40.4,30.23,NW,315,0.0,0.0,69,0.00,,,0.00,WUHU21623XXSP,2013-02-16 05:48:00,
2013-02-15 21:53:00,49.8,40.5,30.23,NW,315,0.0,0.0,70,0.00,,,0.00,WUHU21623XXSP,2013-02-16 05:53:00,
2013-02-15 21:58:00,49.6,40.5,30.24,NW,315,0.0,0.0,70,0.00,,,0.00,WUHU21623XXSP,2013-02-16 05:58:00,
2013-02-15 22:03:00,49.6,40.6,30.23,NW,315,0.0,0.0,71,0.00,,,0.00,WUHU21623XXSP,2013-02-16 06:03:00,
2013-02-15 22:08:00,49.3,40.3,30.23,NW,315,0.0,0.0,71,0.00,,,0.00,WUHU21623XXSP,2013-02-16 06:08:00,
2013-02-15 22:13:00,48.9,39.9,30.23,NW,315,0.0,0.0,71,0.00,,,0.00,WUHU21623XXSP,2013-02-16 06:13:00,
2013-02-15 22:18:00,48.7,39.7,30.23,NW,315,0.0,0.0,71,0.00,,,0.00,WUHU21623XXSP,2013-02-16 06:18:00,
2013-02-15 22:23:00,48.6,39.9,30.23,NW,315,0.0,0.0,72,0.00,,,0.00,WUHU21623XXSP,2013-02-16 06:23:00,
2013-02-15 22:28:00,48.4,39.7,30.23,NW,315,0.0,0.0,72,0.00,,,0.00,WUHU21623XXSP,2013-02-16 06:28:00,
2013-02-15 22:33:00,48.2,39.9,30.23,NW,315,0.0,0.0,73,0.00,,,0.00,WUHU21623XXSP,2013-02-16 06:33:00,
2013-02-15 22:38:00,48.0,39.7,30.23,NW,315,0.0,0.0,73,0.00,,,0.00,WUHU21623XXSP,2013-02-16 06:38:00,
2013-02-15 22:43:00,48.0,39.7,30.23,NW,315,0.0,0.0,73,0.00,,,0.00,WUHU21623XXSP,2013-02-16 06:43:00,
2013-02-15 22:48:00,47.7,39.4,30.23,NW,315,0.0,0.0,73,0.00,,,0.00,WUHU21623XXSP,2013-02-16 06:48:00,
2013-02-15 22:53:00,47.5,39.2,30.24,NW,315,0.0,0.0,73,0.00,,,0.00,WUHU21623XXSP,2013-02-16 06:53:00,
2013-02-15 22:58:00,47.3,39.4,30.24,NW,315,0.0,0.0,74,0.00,,,0.00,WUHU21623XXSP,2013-02-16 06:58:00,
2013-02-15 23:03:00,47.1,39.2,30.23,NW,315,0.0,0.0,74,0.00,,,0.00,WUHU21623XXSP,2013-02-16 07:03:00,
2013-02-15 23:08:00,47.1,39.2,30.23,NW,315,0.0,0.0,74,0.00,,,0.00,WUHU21623XXSP,2013-02-16 07:08:00,
2013-02-15 23:13:00,46.9,39.1,30.24,NW,315,0.0,0.0,74,0.00,,,0.00,WUHU21623XXSP,2013-02-16 07:13:00,
2013-02-15 23:18:00,46.8,39.3,30.23,NW,315,0.0,0.0,75,0.00,,,0.00,WUHU21623XXSP,2013-02-16 07:18:00,
2013-02-15 23:23:00,46.6,39.1,30.24,NW,315,0.0,0.0,75,0.00,,,0.00,WUHU21623XXSP,2013-02-16 07:23:00,
2013-02-15 23:28:00,46.6,39.1,30.23,NW,315,0.0,0.0,75,0.00,,,0.00,WUHU21623XXSP,2013-02-16 07:28:00,
2013-02-15 23:33:00,46.6,39.4,30.23,NW,315,0.0,0.0,76,0.00,,,0.00,WUHU21623XXSP,2013-02-16 07:33:00,
2013-02-15 23:38:00,46.2,39.1,30.23,NW,315,0.0,0.0,76,0.00,,,0.00,WUHU21623XXSP,2013-02-16 07:38:00,
2013-02-15 23:43:00,46.2,39.1,30.23,NW,315,0.0,0.0,76,0.00,,,0.00,WUHU21623XXSP,2013-02-16 07:43:00,
2013-02-15 23:48:00,46.2,39.1,30.23,NW,315,0.0,0.0,76,0.00,,,0.00,WUHU21623XXSP,2013-02-16 07:48:00,
2013-02-15 23:53:00,46.0,38.9,30.23,NW,315,0.0,0.0,76,0.00,,,0.00,WUHU21623XXSP,2013-02-16 07:53:00,
2013-02-15 23:58:00,46.0,38.9,30.23,NW,315,0.0,0.0,76,0.00,,,0.00,WUHU21623XXSP,2013-02-16 07:58:00,